Header for Extended Forecast Station List Page

Search by: ID | Name | Date | Parm | Value | Avg | % Avg
Sort by: ID | Name | Date | Parm | Value | Avg | % Avg

Enter search or view all records.

Click on id for station plot
#IDNameDateParmValueAvg% Avg
0BULO3BULLY CREEK-BULLY CREEK DAM01-13-2020INFLOW (KAF)4939
1MILI1SNAKE-AT MILNER01-13-2020DISCHARGE (KAF)107771
2HWRI1BIG LOST-AT HOWELL RANCH NEAR CHILLY01-13-2020DISCHARGE (KAF)242982
3BERO3MALHEUR-AGENCY VALLEY DAM01-13-2020INFLOW (KAF)304764
4LWRI1LITTLE WOOD-LITTLE WOOD DAM01-13-2020INFLOW (KAF)323984
5MACI1BIG LOST-MACKAY RESERVOIR NEAR MACKAY01-13-2020INFLOW (KAF)3617206
6DEDI1DEADWOOD-NEAR LOWMAN01-13-2020INFLOW (KAF)363990
7MYKO3MCKAY CREEK-NEAR PILOT ROCK01-13-2020DISCHARGE (KAF)364286
8ARDW1ENTIAT-NEAR ARDENVOIR01-13-2020DISCHARGE (KAF)404786
9RIDI1WILLOW CREEK-RIRIE DAM01-13-2020INFLOW (KAF)4730157
10BUDW1BUMPING-BUMPING LAKE DAM01-13-2020INFLOW (KAF)5450109
11WRMO3MALHEUR-WARM SPRINGS DAM01-13-2020INFLOW (KAF)547572
12HALI1BIG WOOD-AT HAILEY01-13-2020DISCHARGE (KAF)556881
13DLGM8CLARK FORK-AT DEER LODGE01-13-2020DISCHARGE (KAF)606691
14RCCM8ROCK CREEK-NEAR CLINTON01-13-2020DISCHARGE (KAF)667292
15PIHI1PORTNEUF-AT POCATELLO01-13-2020DISCHARGE (KAF)719376
16RILW1TIETON-RIMROCK LAKE NEAR RIMROCK01-13-2020INFLOW (KAF)769878
17HOTI1BRUNEAU-NEAR HOT SPRINGS01-13-2020DISCHARGE (KAF)839290
18MAGI1BIG WOOD-MAGIC DAM01-13-2020INFLOW (KAF)8412468
19STRM8ST. REGIS-NEAR ST. REGIS01-13-2020DISCHARGE (KAF)8713166
20GIBO3UMATILLA-NEAR GIBBON01-13-2020DISCHARGE (KAF)8878114
21KADW1KACHESS-KACHESS DAM01-13-2020INFLOW (KAF)8968131
22KEDW1YAKIMA-KEECHELUS LAKE01-13-2020INFLOW (KAF)9870141
23EASW1YAKIMA-AT EASTON01-13-2020DISCHARGE (KAF)10099101
24SATI1ST MARIES-NEAR SANTA01-13-2020DISCHARGE (KAF)10712685
25TNAW1TEANAWAY-BELOW FORKS01-13-2020DISCHARGE (KAF)122106115
26TEAI1TETON-NEAR ST. ANTHONY01-13-2020DISCHARGE (KAF)129128101
27IPDI1HENRYS FORK-ISLAND PARK DAM01-13-2020INFLOW (KAF)133131102
28UMAO3UMATILLA-NEAR UMATILLA01-13-2020DISCHARGE (KAF)14718082
29CHEI1FALL RIVER-NEAR CHESTER01-13-2020DISCHARGE (KAF)151149102
30CLFW1NACHES-NEAR CLIFFDEL01-13-2020DISCHARGE (KAF)15519878
31JLKW4SNAKE-JACKSON LAKE AT DAM01-13-2020INFLOW (KAF)15817093
32DRMM8CLARK FORK-NR DRUMMOND01-13-2020DISCHARGE (KAF)170MM
33PDTO3UMATILLA-AT PENDLETON01-13-2020DISCHARGE (KAF)18219295
34TCHW1WALLA WALLA-NEAR TOUCHET01-13-2020DISCHARGE (KAF)18722184
35ARAI1SF BOISE-ANDERSON RANCH DAM01-13-2020INFLOW (KAF)20122589
36PATW1METHOW-NEAR PATEROS01-13-2020DISCHARGE (KAF)20322092
37NACW1NACHES-NEAR NACHES01-13-2020DISCHARGE (KAF)20522691
38CSDI1NF PAYETTE-CASCADE DAM01-13-2020INFLOW (KAF)20721198
39CLUW1CLE ELUM-CLE ELUM LAKE01-13-2020INFLOW (KAF)209171122
40CHDW1CHELAN-LAKE CHELAN DAM01-13-2020INFLOW (KAF)23629979
41BONM8BLACKFOOT-NEAR BONNER01-13-2020DISCHARGE (KAF)26026498
42OWYO3OWYHEE-OWYHEE DAM01-13-2020INFLOW (KAF)26331683
43BIGI1BOISE-AT GLENWOOD BRIDGE01-13-2020DISCHARGE (KAF)275179154
44JKSW4SNAKE-NEAR JACKSON01-13-2020DISCHARGE (KAF)28540570
45WGCM8MF FLATHEAD-NEAR WEST GLACIER01-13-2020DISCHARGE (KAF)29537778
46UNDW1WHITE SALMON-NEAR UNDERWOOD01-13-2020DISCHARGE (KAF)30034886
47HODO3HOOD-NEAR TUCKER BRIDGE01-13-2020DISCHARGE (KAF)310292106
48MONO3NF JOHN DAY-AT MONUMENT01-13-2020DISCHARGE (KAF)32048166
49WSRI1WEISER-NEAR WEISER01-13-2020DISCHARGE (KAF)32233795
50BITM8BITTERROOT-NEAR MISSOULA01-13-2020DISCHARGE (KAF)33537290
51PITW1KLICKITAT-NEAR PITT01-13-2020DISCHARGE (KAF)36348275
52PARI1BOISE-NEAR PARMA01-13-2020DISCHARGE (KAF)370315118
53TONW1OKANOGAN-NEAR TONASKET01-13-2020DISCHARGE (KAF)38845685
54FCFM8NF FLATHEAD-NEAR COLUMBIA FALLS01-13-2020DISCHARGE (KAF)39440398
55ALPW4SNAKE-NEAR ALPINE01-13-2020DISCHARGE (KAF)41553977
56ANTI1HENRYS FORK-AT ST. ANTHONY01-13-2020DISCHARGE (KAF)441423104
57PRTI1PRIEST-NEAR PRIEST RIVER01-13-2020DISCHARGE (KAF)458376122
58UMTW1YAKIMA-AT UMTANUM01-13-2020DISCHARGE (KAF)476469101
59SERO3JOHN DAY-AT SERVICE CK01-13-2020DISCHARGE (KAF)48472067
60REXI1HENRYS FORK-AT REXBURG01-13-2020DISCHARGE (KAF)502496101
61ABOM8CLARK FORK-ABOVE MISSOULA01-13-2020DISCHARGE (KAF)51554495
62PESW1WENATCHEE-AT PESHASTIN01-13-2020DISCHARGE (KAF)51753297
63PARW1YAKIMA-NEAR PARKER01-13-2020DISCHARGE (KAF)52061385
64EMMI1PAYETTE-NEAR EMMETT01-13-2020DISCHARGE (KAF)54370677
65HHWM8SF FLATHEAD-HUNGRY HORSE DAM01-13-2020INFLOW (KAF)57557999
66LUCI1BOISE-LUCKY PEAK DAM01-13-2020INFLOW (KAF)588MM
67LAUW1KETTLE-AT LAURIER01-13-2020DISCHARGE (KAF)718569126
68PLDI1SF SNAKE-PALISADES DAM01-13-2020INFLOW (KAF)72190180
69KIOW1YAKIMA-AT KIONA01-13-2020DISCHARGE (KAF)74894979
70TRYO3GRANDE RONDE-TROY01-13-2020DISCHARGE (KAF)76787288
71HEII1SNAKE-NEAR HEISE01-13-2020DISCHARGE (KAF)80094285
72BFTI1SNAKE-NEAR BLACKFOOT01-13-2020DISCHARGE (KAF)803107375
73SNAI1SNAKE-AT BLACKFOOT01-13-2020DISCHARGE (KAF)813102979
74BELM8CLARK FORK-BELOW MISSOULA01-13-2020DISCHARGE (KAF)85192792
75SHYI1SNAKE-NEAR SHELLEY01-13-2020DISCHARGE (KAF)951115782
76SIFI1SNAKE-AB EAGLE ROCK NR IDAHO FALLS01-13-2020DISCHARGE (KAF)1006113189
77SRGM8CLARK FORK-AT ST REGIS01-13-2020DISCHARGE (KAF)1081131282
78LYDM8KOOTENAI-LIBBY DAM01-13-2020INFLOW (KAF)1164126892
79WHBI1SALMON-AT WHITEBIRD01-13-2020DISCHARGE (KAF)1301177373
80AFRI1SNAKE-AMERICAN FALLS RESERVOIR01-13-2020INFLOW (KAF)1407179179
81MODO3DESCHUTES-AT MOODY NR BIGGS01-13-2020DISCHARGE (KAF)1430160789
82CFMM8FLATHEAD-AT COLUMBIA FALLS01-13-2020DISCHARGE (KAF)1439164787
83LEOI1KOOTENAI-AT LEONIA01-13-2020DISCHARGE (KAF)1534182784
84DWRI1NF CLEARWATER-DWORSHAK DAM01-13-2020INFLOW (KAF)16261551105
85KERM8FLATHEAD-KERR DAM01-13-2020INFLOW (KAF)1698214279
86SWAI1SNAKE-BELOW SWAN FALLS01-13-2020DISCHARGE (KAF)1771274065
87SPOW1SPOKANE-AT SPOKANE01-13-2020DISCHARGE (KAF)1970MM
88COEI1COEUR D ALENE-COEUR D ALENE LAKE01-13-2020INFLOW (KAF)2091211199
89ORFI1CLEARWATER-AT OROFINO01-13-2020DISCHARGE (KAF)21112080102
90LLKW1SPOKANE-AT LONGLAKE01-13-2020INFLOW (KAF)2320255291
91SPDI1CLEARWATER-AT SPALDING01-13-2020DISCHARGE (KAF)2782375174
92NOXM8CLARK FORK-NOXON RAPIDS DAM01-13-2020INFLOW (KAF)3206461469
93WEII1SNAKE-AT WEISER01-13-2020DISCHARGE (KAF)3285478869
94CABI1CLARK FORK-CABINET GORGE DAM01-13-2020INFLOW (KAF)3578484474
95BRNI1SNAKE-BROWNLEE DAM01-13-2020INFLOW (KAF)3631513271
96ALFW1PEND OREILLE-ALBENI FALLS DAM01-13-2020INFLOW (KAF)4648587879
97ANAW1SNAKE-NEAR ANATONE01-13-2020DISCHARGE (KAF)5936870068
98LGDW1SNAKE-LOWER GRANITE DAM01-13-2020INFLOW (KAF)87181256969
99LGSW1SNAKE-LITTLE GOOSE DAM01-13-2020INFLOW (KAF)87181260969
100LMNW1SNAKE-LOWER MONUMENTAL DAM01-13-2020INFLOW (KAF)90351289270
101IHDW1SNAKE-ICE HARBOR DAM01-13-2020INFLOW (KAF)90351273371
102CIBW1COLUMBIA-AT INTL BOUNDARY01-13-2020DISCHARGE (KAF)16842MM
103GCDW1COLUMBIA-GRAND COULEE DAM01-13-2020INFLOW (KAF)2003919572102
104CHJW1COLUMBIA-CHIEF JOSEPH DAM01-13-2020INFLOW (KAF)224962402594
105WELW1COLUMBIA-WELLS DAM01-13-2020INFLOW (KAF)230762467294
106RRHW1COLUMBIA-ROCKY REACH DAM01-13-2020INFLOW (KAF)235152510794
107PRWW1COLUMBIA-PRIEST RAPIDS DAM01-13-2020INFLOW (KAF)2403623335103
108WANW1COLUMBIA-WANAPUM DAM01-13-2020INFLOW (KAF)2403723088104
109MCDW1COLUMBIA-MCNARY DAM01-13-2020INFLOW (KAF)339223827889
110JDAO3COLUMBIA-JOHN DAY DAM01-13-2020INFLOW (KAF)357684054088
111TDAO3COLUMBIA-THE DALLES DAM01-13-2020INFLOW (KAF)362684321084
112BONO3COLUMBIA-BONNEVILLE DAM01-13-2020INFLOW (KAF)372244611781
113BFEI1KOOTENAI-AT BONNERS FERRY01-13-2020STAGE (FT)MMM
114HOPI1PEND OREILLE-PEND OREILLE LAKE NR HOPE01-13-2020LAKE ELEVATION (FT)MMM
115SJMI1ST JOE-AT ST MARIES01-13-2020STAGE (FT)MMM